Home   Weather   Aurora   Past weeks

Flag for USA Past Weather in Aurora, Colorado, USA — Yesterday and Last 2 Weeks

46 °F

Passing clouds.

Feels Like: 42 °F
Forecast: 44 / 71 °F
Wind: 7 mph from Southeast

Location: Buckley Air Force Base

Current Time: Oct 26, 2016 at 1:43:21 AM

Latest Report: Oct 26, 2016 at 12:58 AM

Visibility: 10 mi

Pressure: 30.13 "Hg (24.66 "Hg at 1647m altitude)

Humidity: 63%

Dew Point: 34 °F

Location of AuroraLocation

Past Weather in Aurora — Graph


Aurora Temperature Yesterday

Maximum temperature yesterday: 70 °F (at 2:58 PM)
Minimum temperature yesterday: 48 °F (at 11:58 PM)
Average temperature yesterday: 59 °F

High & Low Weather Summary for the Past Weeks

High85 °F (Oct 16, 2:58 PM)100% (Oct 12, 12:58 AM)30.49 "Hg (Oct 12, 12:58 AM)
Low28 °F (Oct 20, 4:58 AM)7% (Oct 21, 1:58 PM)29.39 "Hg (Oct 17, 4:58 AM)
Average56 °F38%29.94 "Hg
* Reported Oct 10 11:58 PM — Oct 25 11:58 PM, Aurora, Weather by CustomWeather, © 2016

Note: Actual official high and low records may vary slightly from our data, if they occured in-between our weather recording intervals... More about our weather records


Aurora Weather History for the Previous 24 Hours

Scroll right to see more
Time TempWeatherWind HumidityBarometerVisibility
11:58 PM
Tue, Oct 25
48 °FPassing clouds.6 mph58%30.12 "Hg10 mi
10:58 PM51 °FCool.9 mph55%30.10 "Hg10 mi
9:58 PM56 °FPassing clouds.No wind42%30.08 "Hg10 mi
8:58 PM58 °FPartly cloudy.5 mph40%30.07 "Hg10 mi
7:58 PM58 °FPassing clouds.8 mph42%30.03 "Hg10 mi
6:58 PM59 °FPassing clouds.No wind41%30.03 "Hg10 mi
5:58 PM64 °FBroken clouds.8 mph35%29.99 "Hg10 mi
4:58 PM66 °FScattered clouds.10 mph32%29.96 "Hg10 mi
3:58 PM70 °FSunny.12 mph29%29.94 "Hg10 mi
2:58 PM70 °FBroken clouds.12 mph29%29.93 "Hg10 mi
1:58 PM68 °FPartly sunny.8 mph31%29.93 "Hg10 mi
12:58 PM65 °FPartly sunny.7 mph33%29.95 "Hg10 mi
11:58 AM63 °FPartly sunny.5 mph30%29.96 "Hg10 mi
10:58 AM64 °FPartly sunny.6 mph30%29.95 "Hg10 mi
9:58 AM63 °FPartly sunny.8 mph31%29.94 "Hg10 mi
8:58 AM57 °FPartly sunny.5 mph37%29.96 "Hg10 mi
7:58 AM58 °FPartly sunny.6 mph34%29.92 "Hg10 mi
6:58 AM56 °FMostly cloudy.No wind35%29.93 "Hg10 mi
5:58 AM55 °FPassing clouds.7 mph34%29.92 "Hg10 mi
4:58 AM53 °FPassing clouds.6 mph37%29.91 "Hg10 mi
3:58 AM52 °FPassing clouds.9 mph38%29.89 "Hg10 mi
2:58 AM51 °FPassing clouds.8 mph42%29.91 "Hg10 mi
1:58 AM56 °FPassing clouds.12 mph36%29.90 "Hg10 mi
Weather by CustomWeather, © 2016

See weather overviewHow to use our weather pages